EW1631 Weather Reports


Display with metric or nautical units.
time (UTC)temp
F
wind
direction
speed
MPH
gust
MPH
rain 1hr
in
rain 24hr
in
rain mn
in
humidity
%
barometer
mb
20260901061503 90 287 8.0 14.0 0.00 0.00 0.00 17 1007.5
20260901060002 90 296 8.0 15.0 0.00 0.00 0.00 16 1007.3
20260901054502 91 288 9.0 18.0 0.00 0.00 0.00 17 1007.3
20260901051502 91 306 13.0 19.0 0.00 0.00 0.00 15 1007.3
20260901050002 91 273 9.0 15.0 0.00 0.00 0.00 16 1007.1
20260901044507 91 267 10.0 17.0 0.00 0.00 0.00 17 1007.2
20260901043101 92 299 7.0 13.0 0.00 0.00 0.00 18 1007.2
20260901041605 92 291 10.0 15.0 0.00 0.00 0.00 18 1006.8
20260901034602 92 282 6.0 12.0 0.00 0.00 0.00 23 1006.6
20260901033119 92 302 7.0 14.0 0.00 0.00 0.00 23 1006.4
20260901031559 93 301 5.0 14.0 0.00 0.00 0.00 24 1006.4
20260901030200 94 304 7.0 12.0 0.00 0.00 0.00 26 1006.2
20260901024557 94 308 8.0 15.0 0.00 0.00 0.00 26 1006.0
20260901023056 94 284 10.0 16.0 0.00 0.00 0.00 26 1005.8
20260901021603 95 267 10.0 19.0 0.00 0.00 0.00 26 1005.4
20260901014557 98 299 10.0 16.0 0.00 0.00 0.00 24 1005.2
20260901013112 99 265 11.0 20.0 0.00 0.00 0.00 23 1004.9
20260901011612 100 272 11.0 18.0 0.00 0.00 0.00 22 1004.9
20260901004555 101 281 12.0 22.0 0.00 0.00 0.00 21 1004.6
20260901003054 102 269 10.0 26.0 0.00 0.00 0.00 20 1004.6
20260901001552 103 265 13.0 21.0 0.00 0.00 0.00 19 1004.6
20260831234559 104 289 12.0 19.0 0.00 0.00 0.00 18 1005.0
20260831233051 105 299 11.0 24.0 0.00 0.00 0.00 18 1005.1
20260831231551 105 266 10.0 18.0 0.00 0.00 0.00 18 1005.2
20260831224548 106 222 10.0 16.0 0.00 0.00 0.00 16 1005.3
20260831223050 106 295 9.0 17.0 0.00 0.00 0.00 16 1005.3
20260831221600 106 277 11.0 16.0 0.00 0.00 0.00 16 1005.6
20260831214552 108 348 4.0 13.0 0.00 0.00 0.00 15 1005.9
20260831213043 108 207 6.0 10.0 0.00 0.00 0.00 13 1006.2
20260831211546 107 105 3.0 8.0 0.00 0.00 0.00 14 1006.5
20260831204538 104 86 3.0 13.0 0.00 0.00 0.00 14 1006.8
20260831203046 106 106 4.0 8.0 0.00 0.00 0.00 13 1007.1
20260831201537 104 165 2.0 9.0 0.00 0.00 0.00 14 1007.3
20260831194530 103 76 7.0 12.0 0.00 0.00 0.00 14 1007.7
20260831193029 104 98 6.0 11.0 0.00 0.00 0.00 13 1007.7
20260831191525 104 125 5.0 10.0 0.00 0.00 0.00 14 1008.0
20260831184519 102 111 9.0 14.0 0.00 0.00 0.00 14 1008.0
20260831183015 103 117 8.0 12.0 0.00 0.00 0.00 14 1008.1
20260831181511 102 128 3.0 10.0 0.00 0.00 0.00 13 1008.0
20260831174505 102 199 6.0 9.0 0.00 0.00 0.00 13 1008.0
20260831173001 101 275 8.0 13.0 0.00 0.00 0.00 14 1007.9
20260831171557 100 254 5.0 9.0 0.00 0.00 0.00 14 1008.0
20260831170155 99 284 7.0 13.0 0.00 0.00 0.00 14 1008.1
20260831164549 99 258 8.0 17.0 0.00 0.00 0.00 15 1007.9
20260831163044 98 270 7.0 12.0 0.00 0.00 0.00 16 1007.9
20260831161544 98 246 8.0 15.0 0.00 0.00 0.00 16 1007.8
20260831160136 97 242 5.0 12.0 0.00 0.00 0.00 16 1007.8
20260831154535 97 261 5.0 11.0 0.00 0.00 0.00 15 1007.8
20260831153030 96 244 5.0 14.0 0.00 0.00 0.00 17 1007.8
20260831151529 95 272 6.0 12.0 0.00 0.00 0.00 17 1007.6
20260831150023 94 225 5.0 12.0 0.00 0.00 0.00 16 1007.3
20260831144517 93 246 4.0 10.0 0.00 0.00 0.00 15 1007.3
20260831143014 91 248 6.0 12.0 0.00 0.00 0.00 14 1007.2
20260831141509 89 309 5.0 10.0 0.00 0.00 0.00 13 1007.0
20260831140105 88 286 7.0 15.0 0.00 0.00 0.00 14 1006.9
20260831134502 87 301 8.0 13.0 0.00 0.00 0.00 14 1006.6
20260831133104 87 274 8.0 14.0 0.00 0.00 0.00 14 1006.4
20260831131600 87 275 6.0 12.0 0.00 0.00 0.00 13 1006.5
20260831130054 89 309 7.0 12.0 0.00 0.00 0.00 16 1006.3
20260831124554 89 286 7.0 12.0 0.00 0.00 0.00 14 1006.1
20260831123052 89 278 8.0 12.0 0.00 0.00 0.00 15 1005.9
20260831121551 89 268 8.0 15.0 0.00 0.00 0.00 16 1005.9
20260831120048 90 296 9.0 14.0 0.00 0.00 0.00 17 1005.9
20260831114548 90 286 9.0 15.0 0.00 0.00 0.00 17 1005.9
20260831113047 90 288 8.0 15.0 0.00 0.00 0.00 16 1006.0
20260831111545 90 298 8.0 14.0 0.00 0.00 0.00 15 1006.0
20260831110046 90 279 7.0 12.0 0.00 0.00 0.00 14 1005.9
20260831104544 91 276 8.0 13.0 0.00 0.00 0.00 13 1005.9
20260831103041 91 317 8.0 14.0 0.00 0.00 0.00 12 1005.8
20260831101550 91 269 9.0 16.0 0.00 0.00 0.00 11 1005.7
20260831100038 91 262 9.0 20.0 0.00 0.00 0.00 11 1005.4
20260831094537 92 284 11.0 18.0 0.00 0.00 0.00 12 1005.2
20260831093038 92 236 11.0 20.0 0.00 0.00 0.00 13 1005.2
20260831091550 91 279 10.0 17.0 0.00 0.00 0.00 13 1005.3
20260831090030 92 311 7.0 14.0 0.00 0.00 0.00 13 1005.6
20260831084533 91 313 8.0 15.0 0.00 0.00 0.00 14 1005.8
20260831083030 92 286 8.0 16.0 0.00 0.00 0.00 14 1005.7
20260831081535 92 286 11.0 17.0 0.00 0.00 0.00 14 1005.8
20260831080053 92 276 10.0 18.0 0.00 0.00 0.00 17 1006.1
20260831074523 92 286 12.0 19.0 0.00 0.00 0.00 18 1006.1
20260831073051 92 288 9.0 19.0 0.00 0.00 0.00 18 1006.0
20260831071517 93 293 12.0 18.0 0.00 0.00 0.00 18 1005.9
20260831070016 93 284 11.0 17.0 0.00 0.00 0.00 17 1005.9
20260831064515 93 292 12.0 17.0 0.00 0.00 0.00 17 1005.9